Starlink 2692

operational
NORAD ID: 48434 Int'l Des: 2021-040 Owner: SPXS Country: US Constellation: starlink
LEOCIRCULARSTARLINK_TYPE

Starlink 2692について

説明を読み込み中...

リアルタイム位置

3D地球を読み込み中...

次回通過

高度履歴

Altitude vs Time

uPlot chart will show altitude changes over time

軌道要素

1 48434U 21040G 25299.54327103 .00003907 00000-0 28109-3 0 9994
2 48434 53.0536 39.3354 0001330 81.8428 278.2712 15.06394872246750
Epoch: Oct 26, 2025 • Age: 19 hours

現在のステータス

高度 552.0 km
速度 7.59 km/s
衛星直下点 49.35°N, 66.57°W
打ち上げ日 May 9, 2021
運用期間 4.4 years
タイプ internet

技術仕様

分類 Payload
質量 260.00 kg
乾燥質量 248.00 kg
総質量 260.00 kg
長さ 0.20 m
直径 2.80 m
スパン 9.00 m
形状 Box + pan
製造者 SPXS
バスタイプ Starlink
フェーズステータス In Orbit
所有者/国 SPXS/US

大規模コンステレーション

Loading constellations...